星链-36643(STARLINK-36643)

导读

STARLINK-36643是美国太空探索技术公司(SpaceX)于2026年2月16日发射的星链(Starlink)卫星,是星链全球互联网星座计划的组成部分。星链旨在通过近地轨道卫星星座,为全球尤其是偏远地区提供高速、低延迟的宽带互联网服务,该卫星的发射进一步扩充了星链星座规模,推动全球网络覆盖目标落地。

Basic Information
目录编号:
67822
目录名称:
STARLINK-36643
国际标识:
2026-033B
轨道中心:
EARTH
卫星名称:
星链-36643
卫星全名:
星链-36643(STARLINK-36643)
卫星状态:
在轨 (已飞行200 天)
发射日期:
2026-02-16 UTC
国别 :
美国 (US)
星等 :
--
Orbit Information
数据来源 国际轨道数据 AOE轨道数据
星历时间 2026-09-03T22:58:01+0800
15小时前
查看轨道信息
2026-09-03T08:00:00+0800
1天前
查看轨道信息
半长轴 6861.152km 6861.178km
偏心率 0.0002527 0.0001543
轨道倾角 43.002° 43.001°
近地点辐角 288.407° 274.610°
升交点赤经 342.453° 345.978°
平近点角 71.651° 251.952°
近地点 481.281km 481.982km
远地点 484.749km 484.1km
周期 94.266分钟 94.267分钟
每日圈数 15.275915 15.275828
Detailed Information
固有亮度:
5
最大亮度:
2.5
卫星平台:
Starlink V1.0
覆盖范围:
全球
运营商:
太空探索技术公司
运营商所在国:
美国
制造商(研发单位):
太空探索技术公司
制造商所在国:
美国
使用方式:
暂无
Satellite Introduction
Starlink 计划是 SpaceX 推出的全球卫星互联网项目,通过发射低轨道卫星,为全球尤其是偏远地区提供高速、低延迟的互联网服务。自 2019 年起,Starlink 已部署数千颗卫星,旨在缩小全球数字鸿沟,推动互联网普及。该项目还为军事、航空等行业提供通信支持,带来广泛经济效益。
2D Orbit Map
3D Orbit Map
Orbit Altitude Analysis Chart
Orbit Inclination Analysis Chart
Orbit Comprehensive Analysis Chart
View Comprehensive Chart